Location: Unspecified
(0.0000°N, 0.0000°E)
Time: 17:35:33
(UTC+00:00)

Courier 1B Rocket - Pass Details

Date: 06 October 2020
Orbit: 921 x 1202 km, 28.2° (Epoch: 27 October)

Event Time Altitude Azimuth Distance (km) Brightness Sun altitude
Rises 20:53:39 0° 219° (SW) 4,077 8.7 -46.2°
Reaches altitude 10° 20:57:07 10° 206° (SSW) 3,127 7.9 -47.0°
Enters shadow 20:57:42 12° 203° (SSW) 2,983 7.7 -47.2°
Maximum altitude 21:03:16 25° 154° (SSE) 2,212 - -48.5°
Drops below altitude 10° 21:09:21 10° 102° (ESE) 3,098 - -50.0°
Sets 21:12:45 0° 89° (E) 4,031 - -50.9°
